FW3849 Weather Reports


time (UTC)temp
F
wind
direction
speed
knots
gust
knots
rain 1hr
in
rain 24hr
in
rain mn
in
humidity
%
barometer
mb
20260903085507 82 173 2.6 5.2 0.00 0.00 0.00 36 1010.0
20260903085009 83 173 1.7 5.2 0.00 0.00 0.00 35 1010.0
20260903084505 83 166 2.6 5.2 0.00 0.00 0.00 35 1010.0
20260903084005 83 166 2.6 5.2 0.00 0.00 0.00 35 1010.1
20260903083605 83 172 1.7 4.3 0.00 0.00 0.00 35 1010.1
20260903083006 83 172 1.7 4.3 0.00 0.00 0.00 35 1010.2
20260903082504 83 172 2.6 5.2 0.00 0.00 0.00 34 1010.2
20260903082004 83 173 1.7 4.3 0.00 0.00 0.00 34 1010.2
20260903081503 83 173 1.7 4.3 0.00 0.00 0.00 34 1010.2
20260903081001 83 174 1.7 4.3 0.00 0.00 0.00 33 1010.3
20260903080501 84 175 2.6 4.3 0.00 0.00 0.00 33 1010.2
20260903080001 84 175 1.7 4.3 0.00 0.00 0.00 33 1010.3
20260903075500 84 175 2.6 5.2 0.00 0.00 0.00 33 1010.3
20260903075000 84 186 2.6 7.0 0.00 0.00 0.00 32 1010.3
20260903074500 84 187 3.5 7.8 0.00 0.00 0.00 32 1010.4
20260903074100 84 193 4.3 7.8 0.00 0.00 0.00 32 1010.5
20260903074001 84 199 4.3 7.0 0.00 0.00 0.00 32 1010.5
20260903073700 84 188 1.7 5.2 0.00 0.00 0.00 32 1010.4
20260903072559 84 188 2.6 5.2 0.00 0.00 0.00 31 1010.4
20260903072100 84 191 1.7 7.0 0.00 0.00 0.00 31 1010.4
20260903071601 84 188 2.6 4.3 0.00 0.00 0.00 31 1010.4
20260903071101 84 188 2.6 4.3 0.00 0.00 0.00 31 1010.4
20260903070602 84 187 1.7 5.2 0.00 0.00 0.00 31 1010.4
20260903070106 84 187 2.6 5.2 0.00 0.00 0.00 31 1010.6
20260903065559 84 185 2.6 5.2 0.00 0.00 0.00 31 1010.4
20260903065058 84 185 1.7 5.2 0.00 0.00 0.00 30 1010.4
20260903064601 84 185 2.6 5.2 0.00 0.00 0.00 30 1010.4
20260903064058 84 184 2.6 5.2 0.00 0.00 0.00 30 1010.4
20260903063558 85 184 1.7 3.5 0.00 0.00 0.00 30 1010.5
20260903062557 85 185 1.7 4.3 0.00 0.00 0.00 30 1010.5
20260903062055 85 185 1.7 3.5 0.00 0.00 0.00 29 1010.6
20260903061557 85 186 1.7 4.3 0.00 0.00 0.00 29 1010.5
20260903061058 85 186 1.7 4.3 0.00 0.00 0.00 29 1010.5
20260903060554 85 186 1.7 4.3 0.00 0.00 0.00 29 1010.4
20260903060054 86 187 1.7 4.3 0.00 0.00 0.00 28 1010.5
20260903055552 86 187 2.6 5.2 0.00 0.00 0.00 28 1010.4
20260903055050 86 187 3.5 5.2 0.00 0.00 0.00 28 1010.4
20260903054550 87 188 2.6 5.2 0.00 0.00 0.00 27 1010.4
20260903054048 87 189 2.6 5.2 0.00 0.00 0.00 27 1010.3
20260903053552 88 193 2.6 5.2 0.00 0.00 0.00 26 1010.3
20260903052550 88 194 2.6 5.2 0.00 0.00 0.00 26 1010.3
20260903052050 88 194 3.5 7.0 0.00 0.00 0.00 26 1010.3
20260903051546 88 194 3.5 7.0 0.00 0.00 0.00 26 1010.3
20260903051048 88 195 2.6 5.2 0.00 0.00 0.00 26 1010.2
20260903050547 89 198 2.6 5.2 0.00 0.00 0.00 26 1010.2
20260903050043 89 200 2.6 5.2 0.00 0.00 0.00 26 1010.1
20260903045543 89 201 2.6 5.2 0.00 0.00 0.00 26 1010.2
20260903045047 89 201 2.6 5.2 0.00 0.00 0.00 26 1010.1
20260903044543 89 200 2.6 5.2 0.00 0.00 0.00 26 1010.1
20260903044047 89 200 3.5 5.2 0.00 0.00 0.00 26 1010.1
20260903043542 89 187 2.6 4.3 0.00 0.00 0.00 25 1010.2
20260903042543 89 187 2.6 7.0 0.00 0.00 0.00 25 1010.1
20260903042043 90 188 2.6 7.0 0.00 0.00 0.00 25 1010.1
20260903041543 90 206 4.3 7.0 0.00 0.00 0.00 25 1010.1
20260903041042 89 201 3.5 7.0 0.00 0.00 0.00 25 1010.1
20260903040545 89 204 4.3 5.2 0.00 0.00 0.00 26 1010.1
20260903040142 88 179 1.7 4.3 0.00 0.00 0.00 26 1010.2
20260903035541 88 179 1.7 3.5 0.00 0.00 0.00 26 1010.2
20260903035041 88 179 0.9 3.5 0.00 0.00 0.00 26 1010.2
20260903034542 89 179 1.7 3.5 0.00 0.00 0.00 26 1010.2
20260903034042 89 179 1.7 3.5 0.00 0.00 0.00 26 1010.2
20260903033540 89 178 0.9 3.5 0.00 0.00 0.00 25 1010.1
20260903032542 90 179 1.7 3.5 0.00 0.00 0.00 25 1010.1
20260903032041 90 178 1.7 3.5 0.00 0.00 0.00 24 1010.0
20260903031547 91 178 1.7 4.3 0.00 0.00 0.00 24 1010.0
20260903031040 91 177 2.6 4.3 0.00 0.00 0.00 23 1009.9
20260903030542 91 175 1.7 4.3 0.00 0.00 0.00 23 1009.8
20260903030041 91 175 1.7 4.3 0.00 0.00 0.00 23 1009.8
20260903025540 91 168 1.7 4.3 0.00 0.00 0.00 24 1009.7
20260903025040 91 168 1.7 3.5 0.00 0.00 0.00 24 1009.7
20260903024540 91 168 1.7 2.6 0.00 0.00 0.00 24 1009.5
20260903024040 91 168 0.9 2.6 0.00 0.00 0.00 24 1009.6
20260903023540 92 168 0.9 2.6 0.00 0.00 0.00 23 1009.4
20260903022540 92 168 0.9 3.5 0.00 0.00 0.00 22 1009.2
20260903022043 93 168 1.7 3.5 0.00 0.00 0.00 22 1009.2
20260903021541 93 168 1.7 3.5 0.00 0.00 0.00 22 1009.1
20260903021041 93 168 1.7 3.5 0.00 0.00 0.00 21 1009.1
20260903020540 93 168 1.7 3.5 0.00 0.00 0.00 21 1009.0
20260903020049 93 168 1.7 2.6 0.00 0.00 0.00 21 1009.0
20260903015540 93 168 0.0 2.6 0.00 0.00 0.00 21 1008.9
20260903015039 94 168 0.0 2.6 0.00 0.00 0.00 21 1008.8
20260903014539 94 168 0.9 2.6 0.00 0.00 0.00 21 1008.8
20260903014045 94 168 1.7 3.5 0.00 0.00 0.00 21 1008.7
20260903013543 95 168 1.7 3.5 0.00 0.00 0.00 20 1008.6
20260903012541 95 168 1.7 3.5 0.00 0.00 0.00 19 1008.6
20260903012039 96 168 0.9 4.3 0.00 0.00 0.00 19 1008.6
20260903011539 96 168 1.7 5.2 0.00 0.00 0.00 19 1008.5
20260903011038 96 168 1.7 5.2 0.00 0.00 0.00 19 1008.5
20260903010542 96 156 2.6 7.0 0.00 0.00 0.00 19 1008.4
20260903010040 97 161 3.5 7.0 0.00 0.00 0.00 18 1008.4
20260903005538 97 176 2.6 6.1 0.00 0.00 0.00 18 1008.5
20260903005037 97 182 2.6 6.1 0.00 0.00 0.00 17 1008.5
20260903004538 98 150 1.7 5.2 0.00 0.00 0.00 17 1008.4
20260903004038 98 179 2.6 7.0 0.00 0.00 0.00 16 1008.3
20260903003539 98 166 2.6 9.6 0.00 0.00 0.00 17 1008.3
20260903002537 98 158 3.5 7.0 0.00 0.00 0.00 16 1008.4
20260903002038 99 127 3.5 7.0 0.00 0.00 0.00 16 1008.4
20260903001538 99 164 2.6 8.7 0.00 0.00 0.00 15 1008.4
20260903001040 99 171 3.5 8.7 0.00 0.00 0.00 16 1008.5
20260903000536 99 165 3.5 10.4 0.00 0.00 0.00 16 1008.5
20260903000042 99 187 4.3 10.4 0.00 0.00 0.00 15 1008.6
20260902235537 99 194 4.3 8.7 0.00 0.00 0.00 15 1008.5
20260902235037 100 148 2.6 8.7 0.00 0.00 0.00 15 1008.5
20260902234537 99 170 2.6 8.7 0.00 0.00 0.00 15 1008.4
20260902234036 100 175 2.6 5.2 0.00 0.00 0.00 15 1008.5
20260902233536 100 256 2.6 7.0 0.00 0.00 0.00 15 1008.5
20260902232535 100 224 1.7 5.2 0.00 0.00 0.00 15 1008.6
20260902232036 100 179 1.7 4.3 0.00 0.00 0.00 15 1008.7
20260902231538 100 181 2.6 5.2 0.00 0.00 0.00 15 1008.7
20260902231036 100 189 1.7 6.1 0.00 0.00 0.00 14 1008.6
20260902230537 100 200 1.7 6.1 0.00 0.00 0.00 15 1008.6
20260902230037 100 68 2.6 5.2 0.00 0.00 0.00 15 1008.7
20260902225536 99 72 2.6 5.2 0.00 0.00 0.00 15 1008.8
20260902225036 99 191 2.6 7.8 0.00 0.00 0.00 15 1008.9
20260902224538 100 117 4.3 7.8 0.00 0.00 0.00 15 1008.9
20260902224033 100 156 1.7 10.4 0.00 0.00 0.00 15 1009.0
20260902223533 100 191 5.2 10.4 0.00 0.00 0.00 15 1008.9
20260902222534 100 164 2.6 7.8 0.00 0.00 0.00 15 1008.9
20260902222032 100 189 4.3 7.0 0.00 0.00 0.00 14 1009.0
20260902221533 100 213 1.7 7.8 0.00 0.00 0.00 14 1008.8
20260902221036 101 184 3.5 7.8 0.00 0.00 0.00 14 1008.9
20260902220532 101 210 0.9 7.8 0.00 0.00 0.00 13 1008.9
20260902220032 101 195 5.2 7.8 0.00 0.00 0.00 13 1008.9
20260902215531 101 112 0.9 7.8 0.00 0.00 0.00 13 1009.0
20260902215032 101 197 0.9 8.7 0.00 0.00 0.00 13 1009.0
20260902214533 102 196 3.5 7.8 0.00 0.00 0.00 12 1009.0
20260902214030 103 100 2.6 7.0 0.00 0.00 0.00 13 1009.1
20260902213529 103 1 1.7 7.0 0.00 0.00 0.00 12 1009.2
20260902212530 102 56 2.6 4.3 0.00 0.00 0.00 13 1009.2
20260902212028 101 202 1.7 5.2 0.00 0.00 0.00 14 1009.3
20260902211527 99 202 0.9 8.7 0.00 0.00 0.00 15 1009.6
20260902211027 99 191 1.7 8.7 0.00 0.00 0.00 15 1009.6
20260902210527 99 239 1.7 9.6 0.00 0.00 0.00 16 1009.6
20260902210027 99 251 5.2 9.6 0.00 0.00 0.00 16 1009.7
20260902205526 100 175 4.3 9.6 0.00 0.00 0.00 15 1009.8
20260902205025 100 193 4.3 7.8 0.00 0.00 0.00 15 1009.9
20260902204538 100 1 0.9 5.2 0.00 0.00 0.00 14 1009.9
20260902204028 100 308 1.7 5.2 0.00 0.00 0.00 14 1009.9
20260902203528 99 241 0.9 8.7 0.00 0.00 0.00 15 1010.2
20260902202523 99 226 1.7 7.8 0.00 0.00 0.00 15 1010.4
20260902202021 99 246 3.5 8.7 0.00 0.00 0.00 16 1010.5
20260902201521 99 210 5.2 10.4 0.00 0.00 0.00 16 1010.5
20260902201020 99 220 7.0 11.3 0.00 0.00 0.00 17 1010.5
20260902200521 99 196 6.1 11.3 0.00 0.00 0.00 18 1010.5
20260902200019 99 153 1.7 7.8 0.00 0.00 0.00 17 1010.6
20260902195519 99 150 0.9 7.8 0.00 0.00 0.00 17 1010.6
20260902195017 99 184 2.6 6.1 0.00 0.00 0.00 17 1010.6
20260902194517 98 15 1.7 10.4 0.00 0.00 0.00 17 1010.7
20260902194016 99 198 3.5 8.7 0.00 0.00 0.00 17 1010.8
20260902193515 98 204 7.0 13.0 0.00 0.00 0.00 18 1010.9
20260902192514 97 198 3.5 11.3 0.00 0.00 0.00 21 1011.0
20260902192013 97 117 6.1 11.3 0.00 0.00 0.00 21 1011.1
20260902191513 97 209 1.7 10.4 0.00 0.00 0.00 20 1011.2
20260902191012 97 223 6.1 10.4 0.00 0.00 0.00 20 1011.3
20260902190512 97 211 6.1 9.6 0.00 0.00 0.00 20 1011.3
20260902190011 96 170 2.6 9.6 0.00 0.00 0.00 22 1011.3
20260902185510 96 167 2.6 9.6 0.00 0.00 0.00 22 1011.5
20260902185009 96 189 7.0 11.3 0.00 0.00 0.00 22 1011.7
20260902184509 97 196 7.8 11.3 0.00 0.00 0.00 22 1011.7
20260902184008 96 65 3.5 11.3 0.00 0.00 0.00 23 1011.7
20260902183506 96 229 5.2 11.3 0.00 0.00 0.00 23 1011.8
20260902182505 95 222 4.3 10.4 0.00 0.00 0.00 24 1012.0
20260902182004 95 220 4.3 10.4 0.00 0.00 0.00 25 1012.1
20260902181503 95 234 4.3 9.6 0.00 0.00 0.00 24 1012.2
20260902181002 95 222 5.2 10.4 0.00 0.00 0.00 24 1012.3
20260902180503 95 250 5.2 10.4 0.00 0.00 0.00 25 1012.4
20260902180002 94 220 2.6 10.4 0.00 0.00 0.00 25 1012.5
20260902175600 94 205 6.1 10.4 0.00 0.00 0.00 26 1012.5
20260902175102 94 218 4.3 11.3 0.00 0.00 0.00 26 1012.5
20260902174600 94 238 3.5 10.4 0.00 0.00 0.00 27 1012.5
20260902174056 94 212 6.1 11.3 0.00 0.00 0.00 28 1012.7
20260902173555 93 200 6.1 11.3 0.00 0.00 0.00 28 1012.8
20260902172553 93 235 6.1 11.3 0.00 0.00 0.00 30 1013.1
20260902172052 92 232 6.1 11.3 0.00 0.00 0.00 30 1013.2
20260902171550 92 213 6.1 9.6 0.00 0.00 0.00 31 1013.2
20260902171050 91 243 3.5 13.0 0.00 0.00 0.00 32 1013.3
20260902170549 92 195 7.0 13.0 0.00 0.00 0.00 31 1013.4
20260902170052 91 195 7.0 10.4 0.00 0.00 0.00 32 1013.4
20260902165546 91 211 6.1 11.3 0.00 0.00 0.00 32 1013.4
20260902165045 91 214 6.1 11.3 0.00 0.00 0.00 33 1013.5
20260902164544 90 240 6.1 11.3 0.00 0.00 0.00 33 1013.5
20260902164042 90 179 4.3 9.6 0.00 0.00 0.00 35 1013.5
20260902163542 90 245 5.2 10.4 0.00 0.00 0.00 35 1013.5
20260902162542 89 199 4.3 12.2 0.00 0.00 0.00 36 1013.6
20260902162041 89 264 4.3 12.2 0.00 0.00 0.00 36 1013.7
20260902161541 89 212 4.3 10.4 0.00 0.00 0.00 37 1013.5
20260902161039 88 202 6.1 10.4 0.00 0.00 0.00 37 1013.5
20260902160538 88 216 3.5 8.7 0.00 0.00 0.00 39 1013.7
20260902160038 87 204 5.2 8.7 0.00 0.00 0.00 40 1013.6
20260902155537 87 186 4.3 9.6 0.00 0.00 0.00 41 1013.6
20260902155036 87 190 6.1 9.6 0.00 0.00 0.00 41 1013.7
20260902154538 86 204 3.5 9.6 0.00 0.00 0.00 44 1013.6
20260902154033 86 199 3.5 8.7 0.00 0.00 0.00 45 1013.6
20260902153533 86 190 4.3 9.6 0.00 0.00 0.00 44 1013.6
20260902152531 85 181 3.5 9.6 0.00 0.00 0.00 46 1013.6
20260902152032 85 187 3.5 8.7 0.00 0.00 0.00 45 1013.6
20260902151535 85 210 5.2 11.3 0.00 0.00 0.00 46 1013.6
20260902151031 84 214 4.3 9.6 0.00 0.00 0.00 46 1013.5
20260902150529 84 173 5.2 8.7 0.00 0.00 0.00 46 1013.6
20260902150028 83 199 5.2 9.6 0.00 0.00 0.00 48 1013.6
20260902145527 83 188 5.2 10.4 0.00 0.00 0.00 47 1013.5
20260902145027 83 190 4.3 10.4 0.00 0.00 0.00 48 1013.6
20260902144527 83 176 5.2 10.4 0.00 0.00 0.00 48 1013.5
20260902144027 83 190 6.1 10.4 0.00 0.00 0.00 49 1013.6
20260902143530 82 191 7.0 11.3 0.00 0.00 0.00 49 1013.5
20260902142527 82 196 7.0 10.4 0.00 0.00 0.00 50 1013.6
20260902142028 82 181 5.2 9.6 0.00 0.00 0.00 50 1013.6
20260902141526 82 177 6.1 9.6 0.00 0.00 0.00 49 1013.7
20260902141025 81 168 5.2 8.7 0.00 0.00 0.00 50 1013.7
20260902140526 81 195 5.2 8.7 0.00 0.00 0.00 50 1013.7
20260902140026 81 197 3.5 8.7 0.00 0.00 0.00 50 1013.6
20260902135524 81 167 3.5 7.0 0.00 0.00 0.00 49 1013.7
20260902135024 80 179 1.7 5.2 0.00 0.00 0.00 49 1013.5
20260902134523 80 169 1.7 5.2 0.00 0.00 0.00 49 1013.5
20260902134024 79 168 1.7 5.2 0.00 0.00 0.00 49 1013.5
20260902133522 79 166 1.7 2.6 0.00 0.00 0.00 48 1013.4
20260902132525 78 165 1.7 2.6 0.00 0.00 0.00 48 1013.4
20260902132020 78 165 1.7 2.6 0.00 0.00 0.00 48 1013.3
20260902131520 78 165 0.9 2.6 0.00 0.00 0.00 48 1013.4
20260902131019 77 165 1.7 3.5 0.00 0.00 0.00 48 1013.4
20260902130519 77 165 1.7 3.5 0.00 0.00 0.00 49 1013.4
20260902130018 77 165 1.7 4.3 0.00 0.00 0.00 49 1013.2
20260902125517 77 164 1.7 4.3 0.00 0.00 0.00 48 1013.2
20260902125017 77 164 0.9 2.6 0.00 0.00 0.00 48 1013.2
20260902124516 77 165 0.9 2.6 0.00 0.00 0.00 47 1013.1
20260902124018 77 165 0.9 2.6 0.00 0.00 0.00 47 1013.0
20260902123515 77 165 0.9 2.6 0.00 0.00 0.00 47 1013.1
20260902122515 77 165 0.9 3.5 0.00 0.00 0.00 46 1013.0
20260902122017 77 165 0.9 3.5 0.00 0.00 0.00 46 1013.0
20260902121513 77 165 0.9 2.6 0.00 0.00 0.00 45 1012.9
20260902121013 77 165 0.9 2.6 0.00 0.00 0.00 45 1012.9
20260902120513 77 165 0.9 3.5 0.00 0.00 0.00 44 1013.0
20260902120012 77 165 1.7 3.5 0.00 0.00 0.00 44 1012.9
20260902115511 77 164 0.9 3.5 0.00 0.00 0.00 44 1012.8
20260902115011 77 165 1.7 3.5 0.00 0.00 0.00 44 1012.8
20260902114510 77 164 1.7 3.5 0.00 0.00 0.00 44 1012.8
20260902114011 77 164 1.7 3.5 0.00 0.00 0.00 44 1012.7
20260902113509 77 164 1.7 3.5 0.00 0.00 0.00 44 1012.8
20260902112509 77 164 0.9 2.6 0.00 0.00 0.00 43 1012.7
20260902112007 77 164 0.9 2.6 0.00 0.00 0.00 42 1012.7
20260902111505 78 164 0.9 3.5 0.00 0.00 0.00 42 1012.8
20260902111004 78 164 1.7 4.3 0.00 0.00 0.00 42 1012.7
20260902110506 78 163 1.7 4.3 0.00 0.00 0.00 42 1012.8
20260902110012 78 162 1.7 3.5 0.00 0.00 0.00 42 1012.7
20260902105505 78 162 0.9 2.6 0.00 0.00 0.00 41 1012.8
20260902105003 78 162 0.9 2.6 0.00 0.00 0.00 41 1012.7
20260902104507 78 162 0.9 3.5 0.00 0.00 0.00 41 1012.7
20260902104002 78 162 1.7 3.5 0.00 0.00 0.00 41 1012.8
20260902103501 78 162 0.9 3.5 0.00 0.00 0.00 41 1012.7
20260902102600 78 161 0.9 2.6 0.00 0.00 0.00 41 1012.8
20260902102100 79 161 0.9 3.5 0.00 0.00 0.00 41 1012.7
20260902101608 79 162 1.7 3.5 0.00 0.00 0.00 41 1012.8
20260902101100 79 161 1.7 3.5 0.00 0.00 0.00 40 1012.8
20260902100559 79 162 1.7 3.5 0.00 0.00 0.00 40 1012.7
20260902100059 79 161 0.9 3.5 0.00 0.00 0.00 40 1012.8
20260902095559 79 161 0.9 2.6 0.00 0.00 0.00 40 1012.8
20260902095059 79 161 1.7 3.5 0.00 0.00 0.00 40 1012.8
20260902094558 79 160 1.7 4.3 0.00 0.00 0.00 40 1012.7
20260902094058 79 159 0.9 4.3 0.00 0.00 0.00 40 1012.7
20260902093556 79 158 2.6 4.3 0.00 0.00 0.00 40 1012.7
20260902092600 80 169 2.6 4.3 0.00 0.00 0.00 40 1012.7
20260902092058 80 169 1.7 3.5 0.00 0.00 0.00 40 1012.7
20260902091557 80 171 1.7 3.5 0.00 0.00 0.00 39 1012.6
20260902091055 80 171 0.9 3.5 0.00 0.00 0.00 39 1012.6
20260902090554 80 171 1.7 3.5 0.00 0.00 0.00 39 1012.6
20260902090055 80 171 1.7 3.5 0.00 0.00 0.00 39 1012.7
20260902085553 80 175 1.7 3.5 0.00 0.00 0.00 39 1012.7